Iwojima, Japan

7:41 PM JST on May 29, 2017 (GMT +0900)
Iwojima Aero

Weather History for RJAW - January, 2014

Change the Weather History Date:

Sunday, January 19, 2014

  Actual Average Record
Temperature  
Mean Temperature 65 °F -  
Max Temperature 68 °F 69 °F 77 °F (1999)
Min Temperature 60 °F 64 °F 59 °F (2013)
Growing Degree Days 15 (Base 50)    
Moisture  
Dew Point 45 °F    
Average Humidity 50    
Maximum Humidity 68    
Minimum Humidity 40    
Precipitation  
Precipitation 0.00 in - - ()
Sea Level Pressure  
Sea Level Pressure 30.02 in    
Wind  
Wind Speed 20 mph ()    
Max Wind Speed 28 mph    
Max Gust Speed 39 mph    
Visibility 6.2 miles    
Events      
Averages and records for this station are not official NWS values.
T = Trace of Precipitation, MM = Missing Value Source: Averaged Metar Reports

Daily Weather History Graph

Daily Weather History Graph

Search for Another Location

Airport or City:

Trip Planner

Search our weather history database for the weather conditions in past years. The results will help you decide how hot, cold, wet, or windy it might be!

Date:

Astronomy

Jan. 19, 2014 Rise Set
Actual Time 7:20 AM ChST 6:09 PM ChST
Civil Twilight 6:56 AM ChST 6:34 PM ChST
Nautical Twilight 6:28 AM ChST 7:02 PM ChST
Astronomical Twilight 6:01 AM ChST 7:29 PM ChST
Moon 8:48 PM ChST (1/19) 8:52 AM ChST (1/19)
Length of Visible Light 11h 37m
Length of Day
10h 49m
Waning Gibbous, 93% of the Moon is Illuminated
Jan 19
Waning Gibbous
Jan 24
Last Quarter
Jan 31
New
Feb 7
First Quarter
Feb 15
Full

Hourly Weather History & Observations

Time (ChST) Temp. Dew Point Humidity Pressure Visibility Wind Dir Wind Speed Gust Speed Precip Events Conditions
1:00 AM 64.4 °F 53.6 °F 68% 29.95 in 6.2 mi North 20.7 mph - N/A   Scattered Clouds
4:00 AM 64.4 °F 50.0 °F 59% 29.95 in 6.2 mi NNW 23.0 mph 34.5 mph N/A   Scattered Clouds
6:00 AM 62.6 °F 48.2 °F 59% 29.95 in 6.2 mi North 24.2 mph 36.8 mph N/A   Scattered Clouds
7:00 AM 62.6 °F 46.4 °F 55% 29.98 in 6.2 mi NNW 27.6 mph 39.1 mph N/A   Partly Cloudy
7:39 AM 62.6 °F 46.4 °F 55% 30.01 in 6.2 mi NNW 21.9 mph 33.4 mph N/A   Mostly Cloudy
8:00 AM 62.6 °F 44.6 °F 52% 30.01 in 6.2 mi North 21.9 mph 33.4 mph N/A   Mostly Cloudy
9:00 AM 62.6 °F 42.8 °F 48% 30.04 in 6.2 mi NNW 26.5 mph 38.0 mph N/A   Mostly Cloudy
9:23 AM 64.4 °F 41.0 °F 42% 30.04 in 6.2 mi NNW 21.9 mph 34.5 mph N/A   Scattered Clouds
10:00 AM 64.4 °F 42.8 °F 45% 30.04 in 6.2 mi NNW 23.0 mph 34.5 mph N/A   Scattered Clouds
10:49 AM 66.2 °F 42.8 °F 43% 30.04 in 6.2 mi NNW 19.6 mph 32.2 mph N/A   Mostly Cloudy
11:00 AM 66.2 °F 42.8 °F 43% 30.04 in 6.2 mi NNW 20.7 mph 32.2 mph N/A   Mostly Cloudy
12:00 PM 66.2 °F 42.8 °F 43% 30.04 in 6.2 mi North 25.3 mph 36.8 mph N/A   Mostly Cloudy
1:00 PM 68.0 °F 44.6 °F 43% 30.01 in 6.2 mi NNW 25.3 mph 36.8 mph N/A   Scattered Clouds
2:00 PM 66.2 °F 41.0 °F 40% 30.01 in 6.2 mi North 24.2 mph 35.7 mph N/A   Scattered Clouds
2:47 PM 66.2 °F 42.8 °F 43% 30.01 in 6.2 mi North 23.0 mph 38.0 mph N/A   Mostly Cloudy
3:00 PM 66.2 °F 48.2 °F 52% 30.01 in 6.2 mi North 24.2 mph 38.0 mph N/A   Mostly Cloudy
3:27 PM 66.2 °F 44.6 °F 46% 30.01 in 6.2 mi North 26.5 mph 39.1 mph N/A   Scattered Clouds
4:00 PM 66.2 °F 44.6 °F 46% 30.04 in 6.2 mi North 23.0 mph 34.5 mph N/A   Scattered Clouds
5:00 PM 64.4 °F 46.4 °F 52% 30.04 in 6.2 mi North 25.3 mph 36.8 mph N/A   Scattered Clouds
5:19 PM 64.4 °F 46.4 °F 52% 30.06 in 6.2 mi North 23.0 mph 34.5 mph N/A   Mostly Cloudy
6:00 PM 62.6 °F 46.4 °F 55% 30.06 in 6.2 mi North 24.2 mph 38.0 mph N/A   Mostly Cloudy
7:00 PM 62.6 °F 42.8 °F 48% 30.09 in 6.2 mi North 21.9 mph 34.5 mph N/A   Mostly Cloudy
10:00 PM 60.8 °F 44.6 °F 55% 30.12 in 6.2 mi NNE 17.3 mph 31.1 mph N/A   Mostly Cloudy